Вернуться в каталог

STARLINK-5923

АктивенСвязьVLEO
NORAD 56489·PAYLOAD·🇺🇸 United States

Запущен May 10, 2023 с Vandenberg Space Force Base

Loading…

Ближайшие Пролёты (ближайшие 24 часа)

TLE

СвежийSource: CelesTrak SupGP

Эпоха: Sep 15, 2026, 02:23 UTC

1 56489C 23064AT  26258.09979167  .00071634  00000+0  60040-2 0  2588
2 56489  70.0018 346.9119 0003410 267.5417  94.8715 14.98288112    12

Отслеживайте STARLINK-5923 в реальном времени с AllMySat

Download on the App Store